DW1774 Weather Reports


time (UTC)temp
F
wind
direction
speed
knots
gust
knots
rain 1hr
in
rain 24hr
in
rain mn
in
humidity
%
barometer
mb
20260901232904 82 318 2.6 4.3 6.27 2.35 2.35 83 1011.8
20260901232403 82 325 1.7 4.3 6.21 2.29 2.29 83 1011.8
20260901231905 82 279 1.7 4.3 6.36 2.24 2.24 83 1011.9
20260901231404 82 330 0.9 4.3 6.24 2.18 2.18 84 1011.9
20260901230904 82 302 0.9 4.3 6.30 2.12 2.12 84 1012.0
20260901230404 83 346 0.9 6.1 6.24 2.07 2.07 84 1012.0
20260901225904 83 308 1.7 6.1 6.33 2.02 2.02 84 1012.1
20260901225404 83 329 1.7 4.3 6.24 1.97 1.97 85 1012.2
20260901224904 83 328 0.0 4.3 6.27 1.92 1.92 86 1012.2
20260901224404 83 332 0.0 2.6 6.51 1.88 1.88 85 1012.2
20260901223905 83 333 0.9 5.2 6.57 1.84 1.84 85 1012.3
20260901223405 83 315 2.6 5.2 6.48 1.78 1.78 84 1012.3
20260901222904 83 352 1.7 10.4 6.24 1.72 1.72 84 1012.3
20260901221904 84 345 3.5 8.7 5.79 1.60 1.60 83 1012.3
20260901221404 84 311 1.7 5.2 5.61 1.55 1.55 82 1012.2
20260901220904 84 333 2.6 4.3 5.42 1.49 1.49 82 1012.1
20260901220403 85 247 0.0 4.3 5.30 1.44 1.44 82 1012.0
20260901215904 85 246 0.0 0.0 5.13 1.39 1.39 83 1012.0
20260901214404 86 246 0.0 0.0 4.61 1.23 1.23 84 1012.1
20260901213904 86 246 0.0 0.0 4.28 1.18 1.18 83 1012.2
20260901213404 86 246 0.0 0.0 4.28 1.14 1.14 82 1012.3
20260901212405 86 246 0.0 0.0 4.28 1.06 1.06 80 1012.7
20260901211404 86 246 0.0 0.0 4.24 9.97 9.97 80 1012.9
20260901210904 86 246 0.0 0.0 4.16 9.53 9.53 79 1012.9
20260901210404 86 246 0.0 0.0 4.10 9.17 9.17 79 1012.8
20260901205904 86 246 0.0 0.0 4.08 8.77 8.77 79 1012.7
20260901205404 86 246 0.0 1.7 4.12 8.45 8.45 79 1012.6
20260901204903 86 246 0.0 1.7 4.06 8.11 8.11 80 1012.6
20260901204405 85 240 0.0 0.9 4.00 7.73 7.73 79 1012.4
20260901202904 85 288 0.0 1.7 4.12 6.79 6.79 80 1012.3
20260901202404 85 206 0.0 4.3 4.08 6.39 6.39 80 1012.3
20260901201404 84 231 1.7 4.3 4.01 5.73 5.73 82 1012.6
20260901200905 84 275 0.9 4.3 3.82 5.37 5.37 82 1012.7
20260901200404 84 279 0.0 1.7 3.72 5.07 5.07 83 1012.9
20260901195904 84 279 0.9 1.7 3.55 4.69 4.69 83 1013.1
20260901194904 84 279 0.0 1.7 3.32 4.05 4.05 83 1013.3
20260901194404 84 279 0.9 2.6 3.18 3.73 3.73 83 1013.4
20260901193904 84 281 0.0 2.6 2.96 3.33 3.33 83 1013.5
20260901193405 84 236 0.0 1.7 2.82 3.01 3.01 83 1013.5
20260901192904 84 219 0.9 1.7 2.66 2.67 2.67 85 1013.6
20260901192404 84 294 0.0 0.0 2.31 2.31 2.31 85 1013.5
20260901191904 84 294 0.0 0.9 2.03 2.03 2.03 85 1013.6
20260901191404 84 294 0.0 0.9 1.72 1.72 1.72 85 1013.7
20260901190904 84 295 0.0 0.9 1.55 1.55 1.55 85 1013.7
20260901190403 84 295 0.0 0.0 1.35 1.35 1.35 85 1013.8
20260901184904 84 296 0.0 0.9 0.73 0.73 0.73 85 1014.0
20260901184404 84 296 0.0 1.7 0.55 0.56 0.55 84 1014.1
20260901183404 85 296 0.0 2.6 0.19 0.20 0.19 83 1014.1
20260901182903 84 296 0.0 2.6 0.01 0.02 0.01 82 1014.1
20260901182404 84 286 0.9 2.6 0.00 0.01 0.00 82 1014.1
20260901181904 84 300 1.7 2.6 0.00 0.01 0.00 81 1014.1
20260901181404 84 304 0.9 1.7 0.00 0.01 0.00 81 1014.1
20260901180904 85 337 0.0 1.7 0.00 0.01 0.00 81 1014.1
20260901180404 85 348 0.0 2.6 0.00 0.01 0.00 82 1014.1
20260901175903 84 348 0.0 2.6 0.00 0.01 0.00 82 1014.2
20260901175404 85 307 0.0 2.6 0.00 0.01 0.00 83 1014.3
20260901174904 84 308 0.9 4.3 0.00 0.01 0.00 82 1014.4
20260901174404 84 308 1.7 4.3 0.00 0.01 0.00 82 1014.5
20260901173904 85 313 1.7 5.2 0.00 0.01 0.00 82 1014.7
20260901173404 85 325 0.9 5.2 0.00 0.01 0.00 82 1014.7
20260901172904 85 322 1.7 5.2 0.00 0.01 0.00 82 1014.8
20260901172405 85 342 0.9 2.6 0.00 0.01 0.00 81 1014.9
20260901171904 85 342 1.7 2.6 0.00 0.01 0.00 81 1015.0
20260901171404 85 18 1.7 2.6 0.00 0.01 0.00 80 1015.2
20260901170404 85 330 1.7 2.6 0.00 0.01 0.00 80 1015.4
20260901165904 85 325 1.7 2.6 0.00 0.01 0.00 78 1015.4
20260901165404 85 339 0.9 4.3 0.00 0.01 0.00 78 1015.4
20260901164904 85 338 2.6 5.2 0.00 0.01 0.00 76 1015.4
20260901164405 85 335 1.7 5.2 0.00 0.01 0.00 75 1015.4
20260901162904 86 5 1.7 7.0 0.00 0.01 0.00 75 1015.4
20260901162404 86 12 3.5 7.0 0.00 0.01 0.00 74 1015.5
20260901161903 87 349 4.3 10.4 0.00 0.01 0.00 73 1015.4
20260901161404 87 23 3.5 10.4 0.00 0.01 0.00 74 1015.4
20260901160904 87 23 7.0 10.4 0.00 0.01 0.00 74 1015.4
20260901160404 87 7 3.5 7.0 0.00 0.01 0.00 75 1015.5
20260901155903 87 17 3.5 7.8 0.00 0.01 0.00 75 1015.5
20260901154905 87 59 2.6 7.0 0.00 0.01 0.00 75 1015.2
20260901154404 87 23 2.6 6.1 0.00 0.01 0.00 75 1015.1
20260901153904 87 10 1.7 7.8 0.00 0.01 0.00 75 1015.1
20260901153404 87 1 4.3 7.8 0.00 0.01 0.00 75 1015.0
20260901152904 87 330 3.5 7.8 0.00 0.01 0.00 75 1014.9
20260901152404 86 354 3.5 8.7 0.00 0.01 0.00 76 1014.8
20260901151903 86 45 2.6 8.7 0.00 0.01 0.00 79 1014.9
20260901151403 86 19 8.7 8.7 0.00 0.01 0.00 80 1014.9
20260901150404 85 350 0.9 7.0 0.00 0.01 0.00 80 1014.8
20260901145904 85 346 4.3 7.0 0.00 0.01 0.00 80 1014.9
20260901145404 84 5 2.6 7.8 0.00 0.01 0.00 82 1015.0
20260901144904 84 1 4.3 7.8 0.00 0.01 0.00 82 1015.0
20260901144404 84 353 7.8 7.8 0.00 0.01 0.00 82 1014.9
20260901143905 84 9 6.1 7.8 0.00 0.01 0.00 82 1014.9
20260901143404 83 8 7.0 7.0 0.00 0.01 0.00 83 1014.9
20260901142904 83 349 1.7 6.1 0.00 0.01 0.00 84 1014.9
20260901142405 83 327 0.0 4.3 0.00 0.01 0.00 85 1015.0
20260901141904 83 327 1.7 4.3 0.00 0.01 0.00 85 1015.0
20260901141404 82 350 0.0 1.7 0.00 0.01 0.00 86 1015.1
20260901140904 82 346 0.0 4.3 0.00 0.01 0.00 86 1015.0
20260901140404 82 346 0.9 4.3 0.00 0.01 0.00 86 1014.9
20260901135904 81 340 0.9 4.3 0.00 0.01 0.00 86 1014.7
20260901135404 81 316 0.9 4.3 0.00 0.01 0.00 87 1014.7
20260901134903 81 313 2.6 4.3 0.00 0.01 0.00 87 1014.8
20260901134404 81 312 1.7 4.3 0.00 0.01 0.00 87 1014.9
20260901133904 81 338 1.7 5.2 0.00 0.01 0.00 88 1014.9
20260901133404 80 336 2.6 5.2 0.00 0.01 0.00 88 1015.0
20260901132405 80 337 2.6 4.3 0.00 0.01 0.00 90 1015.0
20260901131904 80 296 0.9 4.3 0.00 0.01 0.00 90 1014.9
20260901131404 80 269 0.0 0.0 0.00 0.01 0.00 91 1014.9
20260901130904 80 269 0.0 1.7 0.00 0.01 0.00 91 1014.9
20260901130404 79 269 0.0 1.7 0.00 0.01 0.00 91 1014.8
20260901125404 79 269 0.0 0.0 0.00 0.01 0.00 91 1014.7
20260901124404 79 269 0.0 0.0 0.00 0.01 0.00 92 1014.6
20260901123904 79 269 0.0 1.7 0.00 0.01 0.00 92 1014.6
20260901123404 79 269 0.0 1.7 0.00 0.01 0.00 92 1014.5
20260901122905 79 269 0.0 1.7 0.00 0.01 0.00 92 1014.4
20260901122403 79 269 0.0 1.7 0.00 0.01 0.00 92 1014.2
20260901121905 79 269 0.0 1.7 0.00 0.01 0.00 92 1014.1
20260901121404 79 268 0.0 2.6 0.00 0.01 0.00 92 1014.0
20260901120904 79 268 0.0 2.6 0.00 0.01 0.00 92 1014.0
20260901115404 79 167 0.0 0.9 0.00 0.01 0.00 92 1014.0
20260901114904 79 167 0.0 0.9 0.00 0.01 0.00 92 1013.9
20260901114404 79 167 0.0 0.0 0.00 0.01 0.00 92 1013.8
20260901113904 79 167 0.0 0.0 0.00 0.01 0.00 92 1013.8
20260901113405 79 167 0.0 0.0 0.00 0.01 0.00 92 1013.9
20260901112904 79 167 0.0 0.0 0.00 0.01 0.00 92 1014.0
20260901112404 79 167 0.0 0.0 0.00 0.01 0.00 92 1013.9
20260901111904 79 167 0.0 0.0 0.00 0.01 0.00 92 1013.9
20260901111404 79 167 0.0 0.0 0.00 0.01 0.00 92 1013.9
20260901110903 79 167 0.0 0.0 0.00 0.01 0.00 92 1013.8
20260901110404 79 167 0.0 0.0 0.00 0.01 0.00 92 1013.8
20260901105905 79 167 0.0 0.0 0.00 0.01 0.00 92 1013.7
20260901105404 79 167 0.0 0.0 0.00 0.01 0.00 92 1013.6
20260901104904 79 167 0.0 0.0 0.00 0.01 0.00 92 1013.7
20260901104404 79 167 0.0 0.0 0.00 0.01 0.00 92 1013.6
20260901103904 79 167 0.0 0.0 0.00 0.01 0.00 92 1013.7
20260901102904 79 167 0.0 0.0 0.00 0.01 0.00 92 1013.7
20260901101903 79 167 0.0 0.0 0.00 0.01 0.00 91 1013.7
20260901101404 79 167 0.0 0.0 0.00 0.01 0.00 91 1013.7
20260901100405 79 167 0.0 0.0 0.00 0.01 0.00 91 1013.6
20260901095905 79 167 0.0 0.0 0.00 0.01 0.00 91 1013.6
20260901095404 79 167 0.0 0.0 0.00 0.01 0.00 91 1013.7
20260901094404 79 167 0.0 0.0 0.00 0.01 0.00 91 1013.9
20260901093904 79 167 0.0 0.0 0.00 0.01 0.00 91 1013.9
20260901093404 79 167 0.0 0.0 0.00 0.01 0.00 91 1013.9
20260901092904 79 167 0.0 0.0 0.00 0.01 0.00 91 1013.9
20260901091404 79 167 0.0 0.0 0.00 0.01 0.00 91 1014.0
20260901090904 79 167 0.0 0.0 0.00 0.01 0.00 90 1014.0
20260901090404 79 167 0.0 0.0 0.00 0.01 0.00 90 1014.0
20260901085904 79 167 0.0 0.0 0.00 0.01 0.00 90 1014.1
20260901084903 79 167 0.0 0.0 0.00 0.01 0.00 90 1014.2
20260901084404 79 167 0.0 0.0 0.00 0.01 0.00 89 1014.1
20260901083905 79 167 0.0 0.0 0.00 0.01 0.00 89 1014.1
20260901082904 80 167 0.0 0.0 0.00 0.01 0.00 89 1014.0
20260901082405 80 167 0.0 0.0 0.00 0.01 0.00 89 1013.9
20260901081904 80 167 0.0 0.0 0.00 0.01 0.00 89 1014.0
20260901081404 80 167 0.0 0.0 0.00 0.01 0.00 89 1014.0
20260901080405 80 167 0.0 0.0 0.00 0.01 0.00 89 1014.1
20260901075904 80 167 0.0 0.0 0.00 0.01 0.00 89 1014.1
20260901075404 80 167 0.0 0.0 0.00 0.01 0.00 89 1014.1
20260901074905 80 167 0.0 0.0 0.00 0.01 0.00 88 1014.0
20260901074403 80 167 0.0 0.0 0.00 0.01 0.00 88 1014.0
20260901073903 80 167 0.0 0.0 0.00 0.01 0.00 88 1014.1
20260901072903 80 167 0.0 0.0 0.00 0.01 0.00 88 1014.0
20260901072405 80 167 0.0 0.0 0.00 0.01 0.00 88 1013.9
20260901071905 80 167 0.0 0.0 0.00 0.01 0.00 88 1014.1
20260901071404 80 167 0.0 0.0 0.00 0.01 0.00 88 1014.2
20260901070904 80 167 0.0 0.0 0.00 0.01 0.00 88 1014.3
20260901065904 80 167 0.0 0.0 0.00 0.01 0.00 88 1014.5
20260901065403 80 167 0.0 0.0 0.00 0.01 0.00 88 1014.5
20260901064904 80 167 0.0 0.0 0.00 0.01 0.00 88 1014.5
20260901064404 80 167 0.0 0.0 0.00 0.01 0.00 88 1014.4
20260901063903 80 167 0.0 0.0 0.00 0.01 0.00 88 1014.3
20260901063404 80 167 0.0 0.0 0.00 0.01 0.00 88 1014.4
20260901062903 81 167 0.0 0.0 0.00 0.01 0.00 88 1014.3
20260901061904 81 167 0.0 0.0 0.00 0.01 0.00 88 1014.3
20260901061404 81 167 0.0 0.0 0.00 0.01 0.00 87 1014.4
20260901060904 81 167 0.0 0.0 0.00 0.01 0.00 87 1014.5
20260901055904 81 167 0.0 0.0 0.00 0.01 0.00 87 1014.5
20260901055405 81 167 0.0 0.0 0.00 0.01 0.00 87 1014.5
20260901054404 81 167 0.0 0.0 0.00 0.01 0.00 86 1014.5
20260901053404 81 167 0.0 0.0 0.00 0.01 0.00 86 1014.5
20260901052903 81 167 0.0 0.0 0.00 0.01 0.00 86 1014.5
20260901051904 81 167 0.0 0.0 0.00 0.01 0.00 86 1014.4
20260901051404 81 167 0.0 0.0 0.00 0.01 0.00 85 1014.3
20260901050904 82 167 0.0 0.0 0.00 0.01 0.00 85 1014.3
20260901050404 82 167 0.0 0.0 0.00 0.01 0.00 85 1014.4
20260901045903 82 167 0.0 0.0 0.00 0.01 0.01 85 1014.4
20260901045404 82 167 0.0 0.0 0.00 0.01 0.01 85 1014.3
20260901044904 82 167 0.0 0.0 0.00 0.01 0.01 85 1014.2
20260901044404 82 167 0.0 0.0 0.00 0.01 0.01 84 1014.3
20260901043904 82 167 0.0 0.0 0.00 0.01 0.01 84 1014.3
20260901043405 82 167 0.0 0.0 0.00 0.01 0.01 84 1014.4
20260901042904 82 167 0.0 0.0 0.00 0.01 0.01 83 1014.3
20260901042403 82 167 0.0 0.0 0.00 0.01 0.01 83 1014.3
20260901041904 82 167 0.0 0.0 0.00 0.01 0.01 83 1014.4
20260901040905 83 167 0.0 0.0 0.00 0.01 0.01 83 1014.4
20260901040403 83 167 0.0 0.0 0.00 0.01 0.01 83 1014.3
20260901035904 83 167 0.0 0.0 0.00 0.01 0.01 83 1014.3
20260901035404 83 167 0.0 0.0 0.00 0.01 0.01 83 1014.2
20260901034904 83 167 0.0 0.0 0.00 0.01 0.01 83 1014.3
20260901034404 83 167 0.0 0.0 0.00 0.01 0.01 83 1014.3
20260901032904 83 167 0.0 0.0 0.00 0.01 0.01 82 1014.2
20260901032404 83 167 0.0 0.0 0.00 0.01 0.01 82 1014.2
20260901031404 84 167 0.0 0.0 0.00 0.01 0.01 82 1014.2
20260901030904 84 167 0.0 0.0 0.00 0.01 0.01 81 1014.2
20260901030404 84 167 0.0 0.0 0.00 0.01 0.01 81 1014.2
20260901025904 84 167 0.0 0.0 0.00 0.01 0.01 81 1014.0
20260901025405 84 167 0.0 0.0 0.00 0.01 0.01 81 1014.0
20260901024905 84 167 0.0 0.0 0.00 0.01 0.01 80 1013.9
20260901024405 84 167 0.0 0.0 0.00 0.01 0.01 80 1013.7
20260901023905 84 167 0.0 0.0 0.00 0.01 0.01 80 1013.6
20260901022904 84 167 0.0 0.0 0.00 0.01 0.01 79 1013.5
20260901022404 85 167 0.0 0.0 0.00 0.01 0.01 79 1013.4
20260901021904 85 167 0.0 0.0 0.00 0.01 0.01 78 1013.3
20260901021405 85 167 0.0 0.0 0.00 0.01 0.01 78 1013.3
20260901020904 85 167 0.0 0.0 0.00 0.01 0.01 77 1013.2
20260901020404 85 167 0.0 0.0 0.00 0.01 0.01 77 1013.1
20260901015904 85 167 0.0 0.0 0.00 0.01 0.01 77 1013.1
20260901014904 85 167 0.0 0.0 0.00 0.01 0.01 76 1013.0
20260901014404 86 167 0.0 0.0 0.00 0.01 0.01 76 1013.1
20260901013904 86 167 0.0 0.0 0.00 0.01 0.01 76 1012.9
20260901013404 86 167 0.0 0.0 0.00 0.01 0.01 75 1012.9
20260901012904 86 167 0.0 0.0 0.00 0.01 0.01 74 1012.8
20260901011404 87 167 0.0 0.0 0.00 0.01 0.01 73 1012.9
20260901010904 87 167 0.0 0.0 0.00 0.01 0.01 73 1012.9
20260901010404 87 167 0.0 0.0 0.00 0.01 0.01 72 1013.0
20260901005905 88 167 0.0 0.0 0.00 0.01 0.01 72 1013.0
20260901005404 88 167 0.0 0.0 0.00 0.01 0.01 72 1013.0
20260901004905 88 167 0.0 0.0 0.00 0.01 0.01 71 1013.1
20260901004403 88 167 0.0 0.0 0.00 0.01 0.01 71 1013.0
20260901003904 88 167 0.0 0.0 0.00 0.01 0.01 71 1013.0
20260901003404 89 167 0.0 0.0 0.00 0.01 0.01 71 1013.1
20260901002904 89 167 0.0 0.0 0.00 0.01 0.01 70 1013.1
20260901002404 89 167 0.0 0.0 0.00 0.01 0.01 70 1013.1
20260901001903 89 167 0.0 0.0 0.00 0.01 0.01 70 1013.1
20260901001403 89 167 0.0 0.0 0.00 0.01 0.01 69 1013.1
20260901000904 89 167 0.0 0.0 0.00 0.01 0.01 69 1013.1
20260901000405 89 165 0.0 0.0 0.00 0.01 0.01 68 1013.1
20260831235404 90 164 0.0 0.9 0.00 0.01 0.01 69 1013.1
20260831234904 90 164 0.0 0.9 0.00 0.01 0.01 68 1013.1
20260831234404 90 151 0.0 0.9 0.00 0.01 0.01 68 1013.0
20260831233404 91 184 0.0 0.0 0.00 0.01 0.01 68 1013.1